Echostar III

operational
NORAD ID: 25004 Int'l Des: 1997-059 Owner: ECHO Country: US
HEOCIRCULAR

关于 Echostar III

正在加载描述...

实时位置

正在加载3D地球...

即将过境

高度历史

Altitude vs Time

uPlot chart will show altitude changes over time

两行轨道根数

1 25004U 97059A 26063.09664074 .00000048 00000-0 00000+0 0 9995
2 25004 9.2817 56.7885 0014535 337.6715 217.9307 0.98871510103562
Epoch: Mar 4, 2026 • Age: 20 hours

当前状态

高度 36217.8 km
速度 3.06 km/s
星下点 9.07°N, 52.27°E
发射日期 Oct 5, 1997
运行时间 28.4 years
类型 other

技术详情

分类 Payload
质量 3670.00 kg
干质量 1600.00 kg
总质量 3670.00 kg
长度 2.60 m
直径 2.00 m
跨度 22.00 m
形状 Box + 2 Pan
制造商 LMCSS
平台类型 A2100
阶段状态 In Orbit
所有者/国家 ECHO/US

大型星座

Loading constellations...